Change the Weather History Date:

Wednesday, February 15, 2012

  Actual Average Record
Temperature  
Mean Temperature 39 °F 32 °F  
Max Temperature 44 °F 40 °F 72 °F (1954)
Min Temperature 33 °F 24 °F -8 °F (1875)
Degree Days  
Heating Degree Days 26 33  
Month to date heating degree days 445 521  
Since 1 July heating degree days 3104 3742  
Cooling Degree Days 0 0  
Month to date cooling degree days 0 0  
Year to date cooling degree days 0 0  
Moisture  
Dew Point 34 °F    
Average Humidity 82    
Maximum Humidity 93    
Minimum Humidity 70    
Precipitation  
Precipitation 0.14 in 0.08 in 1.50 in (1990)
Month to date precipitation 0.65 1.23  
Year to date precipitation 4.13 3.89  
Snow  
Snow 0.00 in 0.20 in 6.30 in (2010)
Month to date snowfall 2.2 3.9  
Since 1 July snowfall 9.1 20.5  
Snow Depth 0.00 in    
Sea Level Pressure  
Sea Level Pressure 30.11 in    
Wind  
Wind Speed 10 mph (SSE)    
Max Wind Speed 18 mph    
Max Gust Speed 23 mph    
Visibility 8 miles    
Events Rain    
T = Trace of Precipitation, MM = Missing Value Source: NWS Daily Summary

Daily Weather History Graph

Daily Weather History Graph

Search for Another Location

Airport or City:

Trip Planner

Search our weather history database for the weather conditions in past years. The results will help you decide how hot, cold, wet, or windy it might be!

Date:

Astronomy

Feb. 15, 2012 Rise Set
Actual Time 7:38 AM EST 6:21 PM EST
Civil Twilight 7:10 AM EST 6:48 PM EST
Nautical Twilight 6:39 AM EST 7:20 PM EST
Astronomical Twilight 6:07 AM EST 7:51 PM EST
Moon 2:30 AM EST (2/15) 12:16 PM EST (2/15)
Length of Visible Light 11h 38m
Length of Day
10h 42m
Last Quarter, 39% of the Moon is Illuminated
Feb 15
Last Quarter
Feb 21
New
Feb 29
First Quarter
Mar 8
Full
Mar 14
Last Quarter

Hourly Weather History & Observations

Time (EST) Temp. Windchill Dew Point Humidity Pressure Visibility Wind Dir Wind Speed Gust Speed Precip Events Conditions
12:54 AM 33.8 °F 28.6 °F 28.4 °F 81% 30.10 in 10.0 mi SW 5.8 mph - N/A   Overcast
1:54 AM 34.0 °F 29.8 °F 30.0 °F 85% 30.11 in 10.0 mi SSW 4.6 mph - N/A   Overcast
2:54 AM 34.0 °F 28.8 °F 30.0 °F 85% 30.12 in 10.0 mi South 5.8 mph - N/A   Overcast
3:54 AM 35.1 °F 29.3 °F 30.0 °F 82% 30.14 in 10.0 mi SSW 6.9 mph - N/A   Overcast
4:54 AM 36.0 °F 29.6 °F 30.0 °F 79% 30.15 in 10.0 mi South 8.1 mph - N/A   Overcast
5:54 AM 34.0 °F 31.0 °F 30.0 °F 85% 30.16 in 10.0 mi SE 3.5 mph - N/A   Overcast
6:12 AM 33.8 °F 27.7 °F 28.4 °F 81% 30.14 in 10.0 mi SSE 6.9 mph - N/A   Overcast
6:54 AM 33.1 °F 25.5 °F 28.9 °F 85% 30.17 in 9.0 mi South 9.2 mph - N/A   Mostly Cloudy
7:46 AM 33.8 °F 26.4 °F 30.2 °F 87% 30.16 in 8.0 mi South 9.2 mph - N/A   Mostly Cloudy
7:54 AM 34.0 °F 26.6 °F 30.0 °F 85% 30.18 in 7.0 mi SSE 9.2 mph - N/A   Mostly Cloudy
8:54 AM 36.0 °F 29.6 °F 30.9 °F 82% 30.18 in 8.0 mi SSE 8.1 mph - N/A   Mostly Cloudy
9:54 AM 39.0 °F 31.8 °F 32.0 °F 76% 30.17 in 9.0 mi SE 11.5 mph - N/A   Mostly Cloudy
10:54 AM 39.9 °F 32.5 °F 33.1 °F 77% 30.17 in 10.0 mi SSE 12.7 mph - N/A   Mostly Cloudy
11:54 AM 42.1 °F 35.7 °F 34.0 °F 73% 30.15 in 10.0 mi SSE 11.5 mph - N/A   Overcast
12:54 PM 42.1 °F 35.2 °F 34.0 °F 73% 30.13 in 10.0 mi SSE 12.7 mph - N/A   Overcast
1:54 PM 44.1 °F 39.0 °F 35.1 °F 71% 30.13 in 10.0 mi SSE 9.2 mph - N/A   Overcast
2:54 PM 42.1 °F 38.4 °F 37.0 °F 82% 30.13 in 5.0 mi South 5.8 mph - 0.01 in Rain Light Rain
3:54 PM 42.1 °F 37.1 °F 39.0 °F 89% 30.11 in 4.0 mi SSE 8.1 mph - 0.01 in Rain Light Rain
4:54 PM 42.1 °F 36.1 °F 37.9 °F 85% 30.10 in 5.0 mi SE 10.4 mph - 0.02 in Rain Light Rain
5:54 PM 41.0 °F 34.3 °F 39.0 °F 93% 30.06 in 4.0 mi ESE 11.5 mph - 0.02 in Rain Light Rain
6:54 PM 41.0 °F 35.2 °F 39.0 °F 93% 30.07 in 7.0 mi SE 9.2 mph - 0.00 in Rain Light Rain
7:54 PM 41.0 °F 34.7 °F 39.0 °F 93% 30.06 in 4.0 mi SE 10.4 mph - 0.02 in Rain Light Rain
8:54 PM 41.0 °F 35.2 °F 39.0 °F 93% 30.06 in 4.0 mi SSE 9.2 mph - 0.04 in Rain Light Rain
9:54 PM 41.0 °F 32.8 °F 39.0 °F 93% 30.03 in 4.0 mi SE 16.1 mph - 0.02 in Rain Light Rain
10:54 PM 42.1 °F 34.2 °F 39.0 °F 89% 29.99 in 6.0 mi SE 16.1 mph - 0.00 in   Overcast
11:54 PM 43.0 °F 35.4 °F 39.9 °F 89% 30.01 in 8.0 mi SSE 16.1 mph - N/A   Overcast